Hourly Weather Agnita

Today, 7 May, Friday

Time Temperature Precipitation Wind Pressure Humidity
00:00 +8°C° 0 mm 1 mps 720 mmHg 76%
01:00 +8°C° 0 mm 1 mps 720 mmHg 76%
02:00 +7°C° 0 mm 0 mps 720 mmHg 77%
03:00 +8°C° 0 mm 1 mps 719 mmHg 76%
04:00 +9°C° 0 mm 1 mps 719 mmHg 76%
05:00 +9°C° 0 mm 1 mps 719 mmHg 76%
06:00 +10°C° 0 mm 1 mps 719 mmHg 74%
07:00 +12°C° 0 mm 1 mps 719 mmHg 73%
08:00 +13°C° 0 mm 2 mps 719 mmHg 71%
09:00 +15°C° 0 mm 2 mps 719 mmHg 66%
10:00 +17°C° 0 mm 2 mps 718 mmHg 61%
11:00 +19°C° 0 mm 2 mps 718 mmHg 56%
12:00 +18°C° 0.1 mm 2 mps 718 mmHg 60%
13:00 +18°C° 0.1 mm 2 mps 718 mmHg 64%
14:00 +17°C° 0.1 mm 2 mps 717 mmHg 68%
15:00 +17°C° 0 mm 2 mps 717 mmHg 69%
16:00 +17°C° 0 mm 2 mps 717 mmHg 70%
17:00 +18°C° 0 mm 1 mps 716 mmHg 71%
18:00 +16°C° 0.2 mm 1 mps 716 mmHg 76%
19:00 +14°C° 0.2 mm 1 mps 717 mmHg 80%
20:00 +13°C° 0.2 mm 1 mps 717 mmHg 85%
21:00 +13°C° 0.6 mm 2 mps 717 mmHg 89%
22:00 +11°C° 0.6 mm 3 mps 717 mmHg 92%
23:00 +10°C° 0.6 mm 3 mps 718 mmHg 95%

Tomorrow, 8 May, Saturday

Time Temperature Precipitation Wind Pressure Humidity
00:00 +10°C° 1.6 mm 3 mps 719 mmHg 96%
01:00 +9°C° 1.6 mm 2 mps 719 mmHg 96%
02:00 +8°C° 1.6 mm 2 mps 720 mmHg 96%
03:00 +8°C° 0.5 mm 2 mps 720 mmHg 95%
04:00 +8°C° 0.5 mm 2 mps 721 mmHg 95%
05:00 +8°C° 0.5 mm 3 mps 721 mmHg 95%
06:00 +7°C° 0.3 mm 3 mps 722 mmHg 93%
07:00 +5°C° 0.3 mm 3 mps 723 mmHg 91%
08:00 +5°C° 0.3 mm 3 mps 723 mmHg 89%
09:00 +7°C° 0 mm 3 mps 724 mmHg 83%
10:00 +7°C° 0 mm 3 mps 724 mmHg 76%
11:00 +8°C° 0 mm 3 mps 725 mmHg 70%
12:00 +10°C° 0.1 mm 3 mps 724 mmHg 65%
13:00 +11°C° 0.1 mm 4 mps 724 mmHg 59%
14:00 +12°C° 0.1 mm 4 mps 724 mmHg 54%
15:00 +12°C° 0.1 mm 4 mps 725 mmHg 56%
16:00 +11°C° 0.1 mm 4 mps 725 mmHg 58%
17:00 +11°C° 0.1 mm 4 mps 725 mmHg 59%
18:00 +10°C° 0 mm 3 mps 725 mmHg 65%
19:00 +8°C° 0 mm 2 mps 726 mmHg 70%
20:00 +7°C° 0 mm 1 mps 726 mmHg 75%
21:00 +7°C° 0 mm 1 mps 726 mmHg 75%
22:00 +7°C° 0 mm 1 mps 727 mmHg 76%
23:00 +6°C° 0 mm 1 mps 727 mmHg 76%

Day after tomorrow, 9 May, Sunday

Time Temperature Precipitation Wind Pressure Humidity
00:00 +6°C° 0 mm 1 mps 727 mmHg 75%
01:00 +6°C° 0 mm 1 mps 728 mmHg 74%
02:00 +6°C° 0 mm 1 mps 728 mmHg 74%
03:00 +6°C° 0 mm 1 mps 728 mmHg 76%
04:00 +5°C° 0 mm 1 mps 728 mmHg 79%
05:00 +4°C° 0 mm 1 mps 728 mmHg 81%
06:00 +6°C° 0 mm 1 mps 729 mmHg 76%
07:00 +8°C° 0 mm 1 mps 729 mmHg 71%
08:00 +10°C° 0 mm 1 mps 729 mmHg 66%
09:00 +11°C° 0 mm 1 mps 729 mmHg 60%
10:00 +13°C° 0 mm 2 mps 729 mmHg 53%
11:00 +14°C° 0 mm 2 mps 729 mmHg 47%
12:00 +15°C° 0 mm 2 mps 729 mmHg 45%
13:00 +16°C° 0 mm 2 mps 728 mmHg 43%
14:00 +17°C° 0 mm 2 mps 728 mmHg 42%
15:00 +17°C° 0 mm 2 mps 728 mmHg 43%
16:00 +17°C° 0 mm 2 mps 728 mmHg 45%
17:00 +17°C° 0 mm 2 mps 727 mmHg 47%
18:00 +15°C° 0 mm 2 mps 727 mmHg 52%
19:00 +13°C° 0 mm 2 mps 727 mmHg 58%
20:00 +10°C° 0 mm 2 mps 727 mmHg 63%
21:00 +9°C° 0 mm 2 mps 727 mmHg 66%
22:00 +8°C° 0 mm 2 mps 727 mmHg 68%
23:00 +7°C° 0 mm 2 mps 727 mmHg 70%

10 May, Monday

Time Temperature Precipitation Wind Pressure Humidity
00:00 +7°C° 0 mm 2 mps 727 mmHg 74%
01:00 +6°C° 0 mm 2 mps 727 mmHg 77%
02:00 +7°C° 0 mm 1 mps 727 mmHg 81%
03:00 +7°C° 0 mm 1 mps 727 mmHg 82%
04:00 +6°C° 0 mm 1 mps 727 mmHg 84%
05:00 +6°C° 0 mm 1 mps 727 mmHg 85%
06:00 +7°C° 0 mm 2 mps 727 mmHg 79%
07:00 +9°C° 0 mm 2 mps 727 mmHg 73%
08:00 +12°C° 0 mm 2 mps 727 mmHg 66%
09:00 +14°C° 0 mm 2 mps 727 mmHg 62%
10:00 +16°C° 0 mm 2 mps 727 mmHg 57%
11:00 +18°C° 0 mm 3 mps 727 mmHg 52%
12:00 +19°C° 0 mm 3 mps 727 mmHg 50%
13:00 +20°C° 0 mm 2 mps 726 mmHg 48%
14:00 +21°C° 0 mm 2 mps 726 mmHg 46%
15:00 +21°C° 0 mm 2 mps 726 mmHg 48%
16:00 +21°C° 0 mm 2 mps 725 mmHg 50%
17:00 +21°C° 0 mm 2 mps 725 mmHg 52%
18:00 +19°C° 0 mm 2 mps 725 mmHg 57%
19:00 +16°C° 0 mm 2 mps 725 mmHg 62%
20:00 +13°C° 0 mm 2 mps 725 mmHg 67%
21:00 +12°C° 0 mm 2 mps 725 mmHg 69%
22:00 +10°C° 0 mm 2 mps 725 mmHg 71%
23:00 +11°C° 0 mm 1 mps 725 mmHg 72%

11 May, Tuesday

Time Temperature Precipitation Wind Pressure Humidity
00:00 +10°C° 0 mm 1 mps 725 mmHg 74%
01:00 +9°C° 0 mm 1 mps 725 mmHg 76%
02:00 +8°C° 0 mm 2 mps 725 mmHg 78%
03:00 +8°C° 0 mm 1 mps 725 mmHg 79%
04:00 +8°C° 0 mm 1 mps 725 mmHg 80%
05:00 +7°C° 0 mm 1 mps 725 mmHg 82%
06:00 +8°C° 0 mm 2 mps 724 mmHg 77%
07:00 +10°C° 0 mm 2 mps 724 mmHg 72%
08:00 +13°C° 0 mm 2 mps 724 mmHg 67%
09:00 +14°C° 0 mm 3 mps 724 mmHg 62%
10:00 +17°C° 0 mm 3 mps 724 mmHg 57%
11:00 +19°C° 0 mm 3 mps 724 mmHg 53%
12:00 +20°C° 0 mm 3 mps 724 mmHg 50%
13:00 +21°C° 0 mm 3 mps 723 mmHg 48%
14:00 +22°C° 0 mm 3 mps 723 mmHg 46%
15:00 +22°C° 0 mm 3 mps 723 mmHg 48%
16:00 +22°C° 0 mm 3 mps 722 mmHg 51%
17:00 +22°C° 0 mm 3 mps 722 mmHg 54%
18:00 +20°C° 0 mm 3 mps 722 mmHg 56%
19:00 +17°C° 0 mm 3 mps 721 mmHg 59%
20:00 +14°C° 0 mm 4 mps 721 mmHg 61%
21:00 +13°C° 0 mm 4 mps 721 mmHg 63%
22:00 +12°C° 0 mm 4 mps 721 mmHg 65%
23:00 +11°C° 0 mm 4 mps 721 mmHg 67%

12 May, Wednesday

Time Temperature Precipitation Wind Pressure Humidity
00:00 +11°C° 0 mm 4 mps 721 mmHg 69%
01:00 +10°C° 0 mm 3 mps 720 mmHg 72%
02:00 +9°C° 0 mm 3 mps 720 mmHg 74%
03:00 +9°C° 0 mm 2 mps 720 mmHg 77%
04:00 +8°C° 0 mm 2 mps 719 mmHg 79%
05:00 +8°C° 0 mm 2 mps 719 mmHg 81%
06:00 +10°C° 0 mm 2 mps 719 mmHg 76%
07:00 +12°C° 0 mm 3 mps 719 mmHg 72%
08:00 +14°C° 0 mm 4 mps 718 mmHg 67%
09:00 +17°C° 0 mm 4 mps 718 mmHg 62%
10:00 +19°C° 0 mm 4 mps 718 mmHg 57%
11:00 +21°C° 0 mm 4 mps 717 mmHg 52%
12:00 +21°C° 0 mm 5 mps 717 mmHg 52%
13:00 +21°C° 0 mm 5 mps 716 mmHg 51%
14:00 +22°C° 0 mm 5 mps 716 mmHg 51%
15:00 +21°C° 0 mm 6 mps 715 mmHg 55%
16:00 +20°C° 0 mm 6 mps 715 mmHg 59%
17:00 +17°C° 0 mm 6 mps 715 mmHg 63%
18:00 +16°C° 0 mm 6 mps 714 mmHg 66%
19:00 +14°C° 0 mm 5 mps 714 mmHg 69%
20:00 +12°C° 0 mm 5 mps 714 mmHg 71%
21:00 +12°C° 0 mm 4 mps 714 mmHg 72%
22:00 +11°C° 0 mm 3 mps 714 mmHg 72%
23:00 +11°C° 0 mm 3 mps 714 mmHg 73%
Show more

We Need Your Consent

Meteoprog and our Service Providers may store and access personal data such as cookies, device identifiers or other similar technologies on your device and process such data to personalise content and ads, as well as provide social media features and to analyse the traffic.

  • Store and/or access information on your device

    Cookies, device identifiers or other information can be stored or accessed on your device for the purposes indicated above.

  • Personalised ads and content, ad and content measurement, audience insights, and products development

    Ads and content can be personalised based on a profile. More data can be added to better personalise ads and content. Ad and content performance can be measured. Insights about the audience who saw the ads and content can be derived. Such data can be used to develop or improve user’s experience, systems and software.

By clicking ‘I Agree’ you will allow the use of indicated cookies, device identifiers, web beacons or other similar technologies. Your settings can be changed in the browser on your device.

For certain purposes, legitimate interests may be relied on, rather than consent. You can read more about this in our Privacy and Cookie Policy.